Location: Mat�lon
(46.2791°N, 7.1028°E)
Time: 16:36:47
(UTC+00:00)

Cosmos 1603 - Pass Details

Date: 18 September 2020
Orbit: 832 x 858 km, 71.0° (Epoch: 30 October)

Event Time Altitude Azimuth Distance (km) Brightness Sun altitude
Rises 18:21:59 0° 332° (NNW) 3,420 7.5 -8.6°
Reaches altitude 10° 18:24:27 10° 331° (NNW) 2,476 6.8 -9.1°
Maximum altitude 18:30:08 77° 247° (WSW) 867 3.9 -10.0°
Drops below altitude 10° 18:35:44 10° 162° (SSE) 2,443 5.8 -11.0°
Sets 18:38:09 0° 161° (SSE) 3,371 6.5 -11.4°
